COSMOS 2492 (754)

Last updated on Sat Oct 25 2025 00:03:21 GMT+0000 (Coordinated Universal Time)

1 39620U 14012A 25296.83140389 -.00000040 00000+0 00000+0 0 9991 2 39620 65.4346 321.9644 0013382 307.3065 52.6253 2.13103339 90209
UTC large
Height (km)
Speed (km/s)
/
Latitude / Longitude
Inclination (degrees)
Orbital Period (minutes)
Azimuth
Elevation
Range (km)
Doppler Factor

Next 0 passes for location: London (51.5072 / 0.1276)

Sorry there are no passes over London.